Location: Selby
(38.0566°N, 122.2439°W)
Time: 06:04:43
(UTC+00:00)

Okean 2 Rocket - Pass Details

Date: 22 May 2024
Orbit: 614 x 638 km, 82.5° (Epoch: 13 June)

Event Time Altitude Azimuth Distance (km) Brightness Sun altitude
Rises 12:15:06 0° 336° (NNW) 2,891 6.6 -7.2°
Reaches altitude 10° 12:17:45 10° 321° (NW) 1,983 5.6 -6.8°
Maximum altitude 12:21:03 21° 272° (W) 1,387 4.4 -6.2°
Drops below altitude 10° 12:24:21 10° 223° (SW) 1,980 5.0 -5.7°
Enters shadow 12:26:05 - 211° (SSW) 2,559 5.7 -5.4°
